Weather History for Big Bear City, CA

Change the Weather History Date:

Monday, December 30, 2013

  Actual Average (KBUO) Record (KBUO)
Temperature  
Mean Temperature 37 °F -  
Max Temperature 57 °F 61 °F 84 °F (1998)
Min Temperature 17 °F 42 °F 35 °F (1999)
Degree Days  
Heating Degree Days 28    
Moisture  
Dew Point 0 °F    
Average Humidity 31    
Maximum Humidity 54    
Minimum Humidity 6    
Precipitation  
Precipitation 0.00 in - - ()
Sea Level Pressure  
Sea Level Pressure 30.35 in    
Wind  
Wind Speed 1 mph (WSW)    
Max Wind Speed 10 mph    
Max Gust Speed -    
Visibility 9 miles    
Events      
Averages and records for this station are not official NWS values.
T = Trace of Precipitation, MM = Missing Value Source: NWS Daily Summary

Daily Weather History Graph

Daily Weather History Graph

Search for Another Location

Airport:

Trip Planner

Search our weather history database for the weather conditions in past years. The results will help you decide how hot, cold, wet, or windy it might be!

Date:

Astronomy

Dec. 30, 2013 Rise Set
Actual Time 6:53 AM PST 4:47 PM PST
Civil Twilight 6:25 AM PST 5:15 PM PST
Nautical Twilight 5:54 AM PST 5:46 PM PST
Astronomical Twilight 5:23 AM PST 6:16 PM PST
Moon 4:50 AM PST (12/30) 3:23 PM PST (12/30)
Length of Visible Light 10h 49m
Length of Day
9h 54m
Waning Crescent, 4% of the Moon is Illuminated
Dec 30
Waning Crescent
Jan 1
New
Jan 7
First Quarter
Jan 15
Full
Jan 23
Last Quarter

Hourly Weather History & Observations

Time (PST) Temp. Windchill Dew Point Humidity Pressure Visibility Wind Dir Wind Speed Gust Speed Precip Events Conditions
12:15 AM 21.2 °F - -0.4 °F 39% 30.33 in 10.0 mi Calm Calm - N/A   Clear
12:35 AM 21.2 °F - -0.4 °F 39% 30.33 in 7.0 mi Calm Calm - N/A   Clear
12:55 AM 19.4 °F - -0.4 °F 42% 30.33 in 10.0 mi Calm Calm - N/A   Clear
1:15 AM 19.4 °F - -0.4 °F 42% 30.33 in 10.0 mi Calm Calm - N/A   Clear
1:35 AM 19.4 °F - -0.4 °F 42% 30.33 in 10.0 mi Calm Calm - N/A   Clear
1:55 AM 19.4 °F - -2.2 °F 39% 30.33 in 7.0 mi Calm Calm - N/A   Clear
2:15 AM 19.4 °F - -4.0 °F 36% 30.33 in 10.0 mi Calm Calm - N/A   Clear
2:35 AM 19.4 °F - -2.2 °F 39% 30.33 in 10.0 mi Calm Calm - N/A   Clear
2:55 AM 19.4 °F - -0.4 °F 42% 30.33 in 10.0 mi Calm Calm - N/A   Clear
3:15 AM 17.6 °F - -0.4 °F 45% 30.33 in 10.0 mi Calm Calm - N/A   Clear
3:35 AM 17.6 °F - -0.4 °F 45% 30.34 in 10.0 mi Calm Calm - N/A   Clear
3:55 AM 17.6 °F - -2.2 °F 42% 30.33 in 10.0 mi Calm Calm - N/A   Clear
4:15 AM 17.6 °F - -2.2 °F 42% 30.33 in 10.0 mi Calm Calm - N/A   Clear
4:35 AM 17.6 °F - -0.4 °F 45% 30.33 in 10.0 mi Calm Calm - N/A   Clear
4:55 AM 17.6 °F - -0.4 °F 45% 30.33 in 10.0 mi Calm Calm - N/A   Clear
5:15 AM 17.6 °F - -4.0 °F 38% 30.34 in 1.5 mi Calm Calm - N/A   Haze
5:35 AM 17.6 °F - -0.4 °F 45% 30.35 in 10.0 mi Calm Calm - N/A   Clear
5:55 AM 17.6 °F - -2.2 °F 42% 30.35 in 10.0 mi Calm Calm - N/A   Clear
6:15 AM 17.6 °F - -0.4 °F 45% 30.36 in 7.0 mi Calm Calm - N/A   Clear
6:35 AM 17.6 °F - -0.4 °F 45% 30.36 in 10.0 mi Calm Calm - N/A   Clear
6:55 AM 17.6 °F - -0.4 °F 45% 30.37 in 10.0 mi Calm Calm - N/A   Clear
7:15 AM 17.6 °F - -0.4 °F 45% 30.38 in 10.0 mi Calm Calm - N/A   Clear
7:35 AM 19.4 °F - 1.4 °F 46% 30.38 in 5.0 mi Calm Calm - N/A   Haze
7:55 AM 21.2 °F - 1.4 °F 42% 30.38 in 10.0 mi Calm Calm - N/A   Clear
8:15 AM 24.8 °F 19.1 °F 6.8 °F 46% 30.39 in 10.0 mi West 4.6 mph - N/A   Clear
8:35 AM 28.4 °F - 6.8 °F 40% 30.39 in 10.0 mi Calm Calm - N/A   Clear
8:55 AM 32.0 °F - 6.8 °F 35% 30.39 in 10.0 mi Calm Calm - N/A   Clear
9:15 AM 35.6 °F - 5.0 °F 28% 30.39 in 10.0 mi Calm Calm - N/A   Clear
9:35 AM 39.2 °F - 3.2 °F 22% 30.39 in 10.0 mi Calm Calm - N/A   Clear
9:55 AM 44.6 °F - -0.4 °F 15% 30.39 in 10.0 mi Calm Calm - N/A   Clear
10:15 AM 46.4 °F - -5.8 °F 11% 30.39 in 10.0 mi Calm Calm - N/A   Clear
10:35 AM 50.0 °F - -7.6 °F 9% 30.38 in 10.0 mi Calm Calm - N/A   Clear
10:55 AM 53.6 °F - -9.4 °F 7% 30.38 in 10.0 mi Calm Calm - N/A   Clear
11:15 AM 55.4 °F - -4.0 °F 9% 30.36 in 10.0 mi Calm Calm - N/A   Clear
11:35 AM 57.2 °F - -4.0 °F 8% 30.35 in 10.0 mi West 5.8 mph - N/A   Clear
11:55 AM 57.2 °F - -2.2 °F 9% 30.34 in 10.0 mi West 8.1 mph - N/A   Clear
12:15 PM 57.2 °F - -4.0 °F 8% 30.33 in 10.0 mi SW 5.8 mph - N/A   Clear
12:35 PM 57.2 °F - -5.8 °F 8% 30.33 in 10.0 mi WSW 8.1 mph - N/A   Clear
12:55 PM 57.2 °F - -9.4 °F 6% 30.32 in 10.0 mi West 10.4 mph - N/A   Clear
1:15 PM 57.2 °F - -9.4 °F 6% 30.32 in 10.0 mi WSW 6.9 mph - N/A   Clear
1:35 PM 57.2 °F - -7.6 °F 7% 30.31 in 10.0 mi WSW 5.8 mph - N/A   Clear
1:55 PM 57.2 °F - -5.8 °F 8% 30.31 in 10.0 mi West 9.2 mph - N/A   Clear
2:15 PM 55.4 °F - -5.8 °F 8% 30.31 in 10.0 mi WSW 5.8 mph - N/A   Clear
2:35 PM 55.4 °F - -9.4 °F 7% 30.31 in 10.0 mi SW 5.8 mph - N/A   Clear
2:55 PM 55.4 °F - -7.6 °F 7% 30.31 in 10.0 mi WSW 5.8 mph - N/A   Clear
3:15 PM 53.6 °F - -9.4 °F 7% 30.32 in 10.0 mi WSW 6.9 mph - N/A   Clear
3:35 PM 53.6 °F - -9.4 °F 7% 30.32 in 10.0 mi WSW 4.6 mph - N/A   Clear
3:55 PM 51.8 °F - -9.4 °F 8% 30.32 in 10.0 mi WSW 5.8 mph - N/A   Clear
4:15 PM 50.0 °F - -2.2 °F 12% 30.32 in 10.0 mi West 5.8 mph - N/A   Clear
4:35 PM 48.2 °F - -4.0 °F 11% 30.33 in 10.0 mi SW 3.5 mph - N/A   Clear
4:55 PM 42.8 °F - 1.4 °F 18% 30.33 in 10.0 mi Calm Calm - N/A   Clear
5:15 PM 37.4 °F - 3.2 °F 24% 30.34 in 10.0 mi Calm Calm - N/A   Clear
5:35 PM 35.6 °F - 5.0 °F 28% 30.34 in 10.0 mi Calm Calm - N/A   Clear
5:55 PM 33.8 °F - 3.2 °F 28% 30.35 in 10.0 mi Calm Calm - N/A   Clear
6:15 PM 32.0 °F - 5.0 °F 32% 30.36 in 10.0 mi Calm Calm - N/A   Clear
6:35 PM 32.0 °F - 6.8 °F 35% 30.36 in 10.0 mi Calm Calm - N/A   Clear
6:55 PM 30.2 °F - 5.0 °F 34% 30.36 in 10.0 mi Calm Calm - N/A   Clear
7:15 PM 30.2 °F - 5.0 °F 34% 30.37 in 10.0 mi Calm Calm - N/A   Clear
7:35 PM 28.4 °F - 5.0 °F 37% 30.37 in 10.0 mi Calm Calm - N/A   Clear
7:55 PM 28.4 °F - 3.2 °F 34% 30.38 in 10.0 mi Calm Calm - N/A   Clear
8:15 PM 28.4 °F - 6.8 °F 40% 30.38 in 7.0 mi Calm Calm - N/A   Clear
8:35 PM 26.6 °F - 6.8 °F 43% 30.38 in 7.0 mi Calm Calm - N/A   Clear
8:55 PM 26.6 °F - 6.8 °F 43% 30.38 in 10.0 mi Calm Calm - N/A   Clear
9:15 PM 26.6 °F - 6.8 °F 43% 30.38 in 7.0 mi Calm Calm - N/A   Clear
9:35 PM 26.6 °F - 6.8 °F 43% 30.38 in 7.0 mi Calm Calm - N/A   Clear
9:55 PM 26.6 °F - 8.6 °F 47% 30.38 in 7.0 mi Calm Calm - N/A   Clear
10:15 PM 26.6 °F - 8.6 °F 47% 30.38 in 7.0 mi Calm Calm - N/A   Clear
10:35 PM 26.6 °F - 8.6 °F 47% 30.38 in 7.0 mi Calm Calm - N/A   Clear
10:55 PM 24.8 °F - 8.6 °F 50% 30.38 in 7.0 mi Calm Calm - N/A   Clear
11:15 PM 26.6 °F 21.2 °F 8.6 °F 47% 30.38 in 7.0 mi West 4.6 mph - N/A   Clear
11:35 PM 24.8 °F 20.5 °F 8.6 °F 50% 30.36 in 7.0 mi SW 3.5 mph - N/A   Clear
11:55 PM 24.8 °F - 10.4 °F 54% 30.36 in 7.0 mi Calm Calm - N/A   Clear